Location: Lawrence
(38.9720°N, 95.2350°W)
Time: 06:00:54
(UTC-05:00)

Amateur Radio Satellites - All Passes

Search period start: 19 October 2017 05:30
Search period end: 20 October 2017 05:30
Location: Lawrence, 38.9720°N, 95.2350°W

Satellite Date Start Highest point End Downlink Frequencies (MHz)
Time Altitude Azimuth
RS-15 19 Oct 05:37:40 05:46:20 21° 345° (NNW) 05:54:52 29.354- 29.394
O/OREOS (USA 219) 19 Oct 06:14:01 06:16:07 13° 53° (NE) 06:18:12 437.305
DOVE 4 19 Oct 06:21:05 06:26:02 64° 101° (E) 06:31:11 437.250
NO-84 19 Oct 06:24:49 06:27:18 15° 337° (NNW) 06:29:44 435.350 FM
KKS-1 19 Oct 06:26:46 06:30:38 29° 263° (W) 06:34:33 437.445
ITAMSAT 1 19 Oct 06:38:37 06:41:32 15° 299° (WNW) 06:44:29 435.822/435.867
STRAND 1 19 Oct 06:48:19 06:51:43 18° 63° (ENE) 06:55:07 437.568
CUTE-I 19 Oct 06:56:08 07:00:43 28° 96° (E) 07:05:18 437.470
XW-2F 19 Oct 06:56:53 07:00:08 28° 97° (E) 07:03:23 145.980 - 146.000
KAITUO 1B 19 Oct 06:57:54 07:00:51 22° 95° (E) 07:03:46 145.475/437.950
LilacSat-2 19 Oct 06:58:44 07:02:13 35° 98° (E) 07:05:40 437.200
AO-7 19 Oct 07:01:40 07:07:34 22° 306° (NW) 07:13:29 .
STARS 19 Oct 07:03:46 07:07:34 29° 263° (W) 07:11:25 437.465
XW-2D 19 Oct 07:07:49 07:11:25 44° 99° (E) 07:14:59 145.860 - 145.880
NUDT-PHONESAT 19 Oct 07:14:14 07:17:37 34° 98° (E) 07:20:57 437.300
XW-2B 19 Oct 07:21:08 07:24:51 65° 101° (E) 07:28:33 145.730 - 145.750
SO-50 19 Oct 07:39:14 07:43:38 61° 118° (ESE) 07:48:04 436.795
XW-2C 19 Oct 07:44:19 07:48:01 59° 285° (WNW) 07:51:41 145.795 - 145.815
O/OREOS (USA 219) 19 Oct 07:51:26 07:56:02 70° 251° (WSW) 08:00:34 437.305
RS-15 19 Oct 07:56:00 08:05:06 23° 21° (NNE) 08:13:52 29.354- 29.394
DOVE 4 19 Oct 08:00:23 08:03:13 15° 295° (WNW) 08:06:07 437.250
CUTE 1.7 + AOD 2 19 Oct 08:01:35 08:05:30 37° 98° (E) 08:09:24 437.475
FO-29 19 Oct 08:06:48 08:09:49 16° 60° (ENE) 08:12:56 435.910
SEEDS 19 Oct 08:11:41 08:15:20 29° 96° (E) 08:18:58 437.485
HO-68 19 Oct 08:22:42 08:29:51 62° 102° (ESE) 08:36:57 435.675
YUBILEINY 19 Oct 08:25:19 08:27:43 11° 74° (ENE) 08:30:08 435.215
STRAND 1 19 Oct 08:25:25 08:30:25 54° 260° (W) 08:35:29 437.568
XW-2F 19 Oct 08:31:34 08:34:01 17° 292° (WNW) 08:36:28 145.980 - 146.000
KAITUO 1B 19 Oct 08:31:54 08:34:42 21° 291° (WNW) 08:37:30 145.475/437.950
LilacSat-2 19 Oct 08:34:06 08:36:09 14° 293° (WNW) 08:38:14 437.200
PCSat 19 Oct 08:34:49 08:39:37 34° 109° (ESE) 08:44:28 145.827
CUTE-I 19 Oct 08:35:55 08:40:45 35° 292° (WNW) 08:45:34 437.470
AAUSAT CUBESAT 2 19 Oct 08:39:58 08:43:27 26° 96° (E) 08:46:56 437.432
XW-2D 19 Oct 08:43:49 08:45:10 12° 294° (WNW) 08:46:30 145.860 - 145.880
CUBEBUG 2 19 Oct 08:47:08 08:51:48 73° 101° (E) 08:56:17 437.445
AO-73 19 Oct 08:48:43 08:51:45 18° 93° (E) 08:54:43 145.935
NUDT-PHONESAT 19 Oct 08:49:13 08:51:09 14° 293° (WNW) 08:53:03 437.300
ZACube-1 19 Oct 09:09:08 09:13:10 36° 97° (E) 09:17:07 437.345
XW-2A 19 Oct 09:09:19 09:12:40 86° 284° (WNW) 09:15:59 145.665 - 145.685
SO-50 19 Oct 09:21:34 09:24:29 17° 316° (NW) 09:27:25 436.795
UNISAT 6 19 Oct 09:25:53 09:29:17 21° 67° (ENE) 09:32:46 437.425
UWE-3 19 Oct 09:28:13 09:32:44 70° 284° (WNW) 09:37:05 435.000/436.395/437.385
CUTE 1.7 + AOD 2 19 Oct 09:38:17 09:41:01 17° 293° (WNW) 09:43:46 437.475
TIGRISAT 19 Oct 09:40:32 09:44:23 27° 68° (ENE) 09:48:18 435.000
NO-84 19 Oct 09:43:36 09:45:18 12° 19° (NNE) 09:46:56 435.350 FM
JUGNU 19 Oct 09:46:30 09:47:40 11° 183° (S) 09:48:51 437.505
SEEDS 19 Oct 09:47:41 09:50:49 21° 291° (WNW) 09:53:58 437.485
Oscar 11 19 Oct 09:48:07 09:52:22 60° 101° (E) 09:56:36 .
FO-29 19 Oct 09:49:08 09:54:15 63° 259° (W) 09:59:42 435.910
RS-15 19 Oct 10:09:03 10:20:54 60° 52° (NE) 10:32:01 29.354- 29.394
HO-68 19 Oct 10:11:23 10:17:01 26° 300° (WNW) 10:22:38 435.675
YUBILEINY 19 Oct 10:14:11 10:22:48 72° 93° (E) 10:31:27 435.215
AAUSAT CUBESAT 2 19 Oct 10:15:31 10:18:46 23° 291° (WNW) 10:22:00 437.432
PCSat 19 Oct 10:18:07 10:22:58 33° 307° (NW) 10:27:51 145.827
nSIGHT-1 19 Oct 10:18:53 10:21:35 26° 133° (SE) 10:24:18 .
DELFI C3 19 Oct 10:20:14 10:23:39 27° 96° (E) 10:27:02 145.870
AO-73 19 Oct 10:24:06 10:28:05 35° 289° (WNW) 10:31:57 145.935
CUBEBUG 2 19 Oct 10:26:14 10:27:42 11° 298° (WNW) 10:29:10 437.445
ZACube-1 19 Oct 10:46:05 10:49:10 19° 293° (WNW) 10:52:12 437.345
ISS 19 Oct 10:47:59 10:51:05 46° 137° (SE) 10:54:14 437.550
PRISM 19 Oct 10:54:14 10:58:16 81° 74° (ENE) 11:02:20 437.425
UNISAT 6 19 Oct 11:01:23 11:05:42 38° 262° (W) 11:10:05 437.425
AIST 2D 19 Oct 11:01:52 11:04:21 18° 70° (ENE) 11:06:49 435.315
QB50P2 19 Oct 11:05:52 11:06:38 10° 63° (ENE) 11:07:24 145.880/145.840
TIGRISAT 19 Oct 11:16:55 11:20:56 29° 264° (W) 11:25:02 435.000
NO-84 19 Oct 11:19:49 11:23:32 51° 40° (NE) 11:26:53 435.350 FM
DUCHIFAT 1 19 Oct 11:21:31 11:22:36 11° 63° (ENE) 11:23:42 145.980
EO-88 19 Oct 11:23:02 11:26:40 89° 101° (E) 11:30:17 145.990 - 145.960
Oscar 11 19 Oct 11:26:22 11:27:57 12° 296° (WNW) 11:29:33 .
Max Valier Satellite 19 Oct 11:30:03 11:33:37 50° 285° (WNW) 11:37:10 145.860
ESTCUBE 1 19 Oct 11:39:58 11:41:39 12° 91° (E) 11:43:20 437.505/2401.250
nSIGHT-1 19 Oct 11:54:54 11:57:48 31° 330° (NNW) 12:00:42 .
DELFI C3 19 Oct 11:55:16 11:58:13 20° 291° (WNW) 12:01:10 145.870
SRMSAT 19 Oct 12:06:44 12:08:29 11° 180° (S) 12:10:14 437.500
EO-79 19 Oct 12:13:05 12:17:13 54° 74° (ENE) 12:21:24 145.935-145.965
YUBILEINY 19 Oct 12:13:47 12:20:23 24° 293° (WNW) 12:27:03 435.215
LO-87 19 Oct 12:16:36 12:20:07 45° 99° (E) 12:23:35 145.935 - 145.965
POLYITAN 1 19 Oct 12:17:23 12:21:35 61° 75° (ENE) 12:25:51 437.675
RS-15 19 Oct 12:22:17 12:32:44 40° 254° (WSW) 12:42:44 29.354- 29.394
ISS 19 Oct 12:25:05 12:27:43 22° 334° (NNW) 12:30:22 437.550
Oscar 19 19 Oct 12:30:14 12:31:20 11° 59° (ENE) 12:32:26 437.125/150
AIST 2D 19 Oct 12:34:31 12:37:21 23° 264° (W) 12:40:12 435.315
SPROUT 19 Oct 12:35:45 12:37:03 11° 91° (E) 12:38:19 437.525
QB50P2 19 Oct 12:37:33 12:41:47 69° 258° (WSW) 12:46:05 145.880/145.840
BEESAT 3 19 Oct 12:39:36 12:43:20 40° 116° (ESE) 12:47:08 437.485
NANOSAT C BR1 19 Oct 12:42:00 12:46:14 78° 256° (WSW) 12:50:32 145.865
Gurwin Techsat 1B 19 Oct 12:51:11 12:53:19 12° 60° (ENE) 12:55:27 435.225
DUCHIFAT 1 19 Oct 12:53:28 12:57:41 65° 259° (W) 13:01:55 145.980
NO-84 19 Oct 12:58:29 13:00:25 14° 238° (WSW) 13:02:15 435.350 FM
AO-85 19 Oct 13:04:09 13:05:56 13° 109° (ESE) 13:07:43 145.980
BUGSAT 1 19 Oct 13:06:04 13:09:59 41° 72° (ENE) 13:13:57 437.445
VELOX 1 19 Oct 13:09:54 13:13:07 19° 94° (E) 13:16:19 145.980
ESTCUBE 1 19 Oct 13:14:23 13:18:47 58° 286° (WNW) 13:23:11 437.505/2401.250
nSIGHT-1 19 Oct 13:34:15 13:34:52 10° 349° (NNW) 13:35:29 .
EO-79 19 Oct 13:51:42 13:53:17 12° 269° (W) 13:54:52 145.935-145.965
LO-87 19 Oct 13:52:12 13:53:04 11° 294° (WNW) 13:53:55 145.935 - 145.965
POLYITAN 1 19 Oct 13:56:54 13:57:44 10° 270° (W) 13:58:34 437.675
BEESAT 2 19 Oct 13:57:14 14:01:13 88° 119° (ESE) 14:05:18 435.950
Oscar 19 19 Oct 14:04:39 14:09:50 87° 76° (ENE) 14:15:01 437.125/150
SPROUT 19 Oct 14:09:02 14:13:16 57° 286° (WNW) 14:17:28 437.525
M-CUBED/EXP-1 PRIME 19 Oct 14:09:37 14:13:00 54° 254° (WSW) 14:16:16 437.505
AO-7 19 Oct 14:15:16 14:21:15 23° 54° (NE) 14:27:14 .
BEESAT 3 19 Oct 14:18:10 14:21:03 19° 313° (NW) 14:23:58 437.485
DX 1 19 Oct 14:19:21 14:23:04 26° 96° (E) 14:26:45 434.975-435.025
Gurwin Techsat 1B 19 Oct 14:27:11 14:32:29 85° 255° (WSW) 14:37:51 435.225
ITAMSAT 1 19 Oct 14:39:02 14:40:40 11° 59° (ENE) 14:42:18 435.822/435.867
AO-85 19 Oct 14:42:07 14:45:50 45° 305° (NW) 14:49:40 145.980
BUGSAT 1 19 Oct 14:43:02 14:45:30 15° 268° (W) 14:47:59 437.445
UKube-1 19 Oct 14:45:33 14:49:27 32° 98° (E) 14:53:20 .
VELOX 1 19 Oct 14:45:34 14:49:37 35° 289° (WNW) 14:53:40 145.980
50 SAT 19 Oct 14:48:15 14:51:34 83° 102° (ESE) 14:54:51 437.505
ITUPSAT 1 19 Oct 15:28:44 15:30:25 12° 91° (E) 15:32:05 437.325
BEESAT 2 19 Oct 15:38:26 15:39:32 11° 319° (NW) 15:40:39 435.950
ISS 19 Oct 15:41:30 15:42:51 12° 14° (NNE) 15:44:12 437.550
BEESAT 19 Oct 15:43:37 15:46:52 18° 93° (E) 15:50:04 436.000
DX 1 19 Oct 15:55:31 15:59:08 26° 292° (WNW) 16:02:45 434.975-435.025
AO-7 19 Oct 16:04:46 16:13:05 82° 253° (WSW) 16:21:25 .
SO-50 19 Oct 16:11:26 16:15:47 39° 53° (NE) 16:20:10 436.795
ITAMSAT 1 19 Oct 16:14:08 16:19:19 89° 254° (WSW) 16:24:33 435.822/435.867
UKube-1 19 Oct 16:22:00 16:25:15 21° 293° (WNW) 16:28:30 .
MOZHAYETS 4 19 Oct 16:44:03 16:48:39 88° 284° (WNW) 16:53:12
nSIGHT-1 19 Oct 16:46:44 16:49:31 27° 29° (NNE) 16:52:18 .
CUBESAT XI-V 19 Oct 16:53:08 16:56:51 24° 95° (E) 17:00:33 437.345
ITUPSAT 1 19 Oct 17:03:54 17:08:40 67° 286° (WNW) 17:13:24 437.325
ISS 19 Oct 17:16:52 17:20:01 41° 33° (NNE) 17:23:08 437.550
BEESAT 19 Oct 17:20:16 17:24:48 44° 289° (WNW) 17:29:19 436.000
PCSat 19 Oct 17:23:46 17:28:05 23° 49° (NE) 17:32:22 145.827
DOVE 4 19 Oct 17:25:47 17:29:48 49° 73° (ENE) 17:33:58 437.250
XW-2F 19 Oct 17:37:54 17:39:34 13° 66° (ENE) 17:41:15 145.980 - 146.000
LilacSat-2 19 Oct 17:40:17 17:42:39 16° 68° (ENE) 17:45:01 437.200
XW-2D 19 Oct 17:48:22 17:51:04 19° 69° (ENE) 17:53:46 145.860 - 145.880
SO-50 19 Oct 17:52:25 17:56:00 22° 249° (WSW) 17:59:36 436.795
NUDT-PHONESAT 19 Oct 17:53:11 17:55:11 14° 67° (ENE) 17:57:12 437.300
XW-2B 19 Oct 18:01:15 18:04:25 25° 71° (ENE) 18:07:35 145.730 - 145.750
AO-7 19 Oct 18:02:49 18:06:55 14° 270° (W) 18:11:03 .
CUTE-I 19 Oct 18:16:38 18:21:33 41° 70° (ENE) 18:26:32 437.470
KKS-1 19 Oct 18:18:00 18:22:25 54° 101° (E) 18:26:48 437.445
nSIGHT-1 19 Oct 18:22:54 18:25:49 32° 225° (SW) 18:28:43 .
XW-2C 19 Oct 18:23:49 18:27:31 50° 74° (ENE) 18:31:12 145.795 - 145.815
CUBESAT XI-V 19 Oct 18:30:10 18:34:12 31° 290° (WNW) 18:38:13 437.345
HO-68 19 Oct 18:50:01 18:56:35 41° 65° (ENE) 19:03:11 435.675
CUTE 1.7 + AOD 2 19 Oct 18:53:15 18:56:37 23° 69° (ENE) 18:59:59 437.475
STARS 19 Oct 18:53:24 18:57:45 52° 100° (E) 19:02:04 437.465
ISS 19 Oct 18:53:52 18:56:16 19° 229° (SW) 18:58:41 437.550
SEEDS 19 Oct 19:02:42 19:05:33 18° 67° (ENE) 19:08:24 437.485
DOVE 4 19 Oct 19:06:14 19:07:51 12° 270° (W) 19:09:30 437.250
PCSat 19 Oct 19:06:31 19:11:46 51° 247° (WSW) 19:16:58 145.827
KAITUO 1B 19 Oct 19:09:20 19:13:00 55° 260° (W) 19:16:40 145.475/437.950
XW-2F 19 Oct 19:09:42 19:13:18 41° 262° (W) 19:16:53 145.980 - 146.000
LilacSat-2 19 Oct 19:13:09 19:16:38 33° 263° (W) 19:20:07 437.200
XW-2D 19 Oct 19:21:47 19:25:03 27° 264° (W) 19:28:18 145.860 - 145.880
NUDT-PHONESAT 19 Oct 19:25:18 19:28:43 35° 262° (W) 19:32:10 437.300
AAUSAT CUBESAT 2 19 Oct 19:29:43 19:32:09 16° 67° (ENE) 19:34:35 437.432
XW-2B 19 Oct 19:35:44 19:38:33 19° 266° (W) 19:41:21 145.730 - 145.750
XW-2A 19 Oct 19:39:21 19:42:06 23° 71° (ENE) 19:44:52 145.665 - 145.685
CUBEBUG 2 19 Oct 19:43:13 19:47:43 51° 73° (ENE) 19:52:19 437.445
AO-73 19 Oct 19:43:28 19:45:54 14° 65° (ENE) 19:48:21 145.935
KKS-1 19 Oct 19:56:07 19:58:29 14° 296° (WNW) 20:00:52 437.445
CUTE-I 19 Oct 19:57:32 20:01:43 23° 266° (W) 20:05:56 437.470
ZACube-1 19 Oct 20:03:26 20:07:13 26° 69° (ENE) 20:11:00 437.345
UWE-3 19 Oct 20:22:58 20:27:35 79° 77° (ENE) 20:32:17 435.000/436.395/437.385
O/OREOS (USA 219) 19 Oct 20:25:08 20:27:51 16° 99° (E) 20:30:33 437.305
YUBILEINY 19 Oct 20:26:13 20:33:58 33° 71° (ENE) 20:41:41 435.215
CUTE 1.7 + AOD 2 19 Oct 20:28:42 20:32:18 27° 264° (W) 20:35:55 437.475
STARS 19 Oct 20:31:13 20:33:37 14° 296° (WNW) 20:36:00 437.465
STRAND 1 19 Oct 20:36:57 20:42:02 57° 101° (E) 20:47:05 437.568
SEEDS 19 Oct 20:37:08 20:40:57 35° 262° (W) 20:44:48 437.485
HO-68 19 Oct 20:37:47 20:44:16 37° 262° (W) 20:50:51 435.675
Oscar 11 19 Oct 20:41:27 20:45:28 38° 72° (ENE) 20:49:30 .
BEESAT 3 19 Oct 20:57:48 21:00:35 18° 47° (NE) 21:03:21 437.485
FO-29 19 Oct 20:58:27 21:03:40 21° 93° (E) 21:09:09 435.910
AAUSAT CUBESAT 2 19 Oct 21:03:23 21:07:15 40° 262° (W) 21:11:07 437.432
DELFI C3 19 Oct 21:05:32 21:07:31 14° 66° (ENE) 21:09:30 145.870
XW-2A 19 Oct 21:12:29 21:14:46 17° 266° (W) 21:17:03 145.665 - 145.685
AO-73 19 Oct 21:17:09 21:21:38 56° 260° (W) 21:26:09 145.935
CUBEBUG 2 19 Oct 21:21:54 21:24:36 15° 269° (W) 21:27:20 437.445
AO-85 19 Oct 21:34:28 21:36:47 14° 43° (NE) 21:39:11 145.980
ZACube-1 19 Oct 21:39:23 21:43:20 29° 264° (W) 21:47:20 437.345
EO-88 19 Oct 21:59:23 22:02:34 29° 72° (ENE) 22:05:45 145.990 - 145.960
O/OREOS (USA 219) 19 Oct 22:02:25 22:06:48 46° 295° (WNW) 22:11:15 437.305
Max Valier Satellite 19 Oct 22:06:59 22:10:37 53° 75° (ENE) 22:14:16 145.860
BEESAT 2 19 Oct 22:16:00 22:19:43 34° 53° (NE) 22:23:23 435.950
STRAND 1 19 Oct 22:17:25 22:20:44 17° 297° (WNW) 22:24:01 437.568
Oscar 11 19 Oct 22:18:53 22:21:44 17° 267° (W) 22:24:34 .
YUBILEINY 19 Oct 22:22:36 22:31:01 52° 271° (W) 22:39:26 435.215
BEESAT 3 19 Oct 22:34:35 22:38:18 40° 245° (WSW) 22:41:56 437.485
DELFI C3 19 Oct 22:38:11 22:41:53 41° 261° (W) 22:45:36 145.870
PRISM 19 Oct 22:38:32 22:40:04 12° 92° (E) 22:41:35 437.425
ESTCUBE 1 19 Oct 22:39:44 22:40:31 10° 62° (ENE) 22:41:19 437.505/2401.250
FO-29 19 Oct 22:42:08 22:49:00 71° 286° (WNW) 22:56:34 435.910
LO-87 19 Oct 22:52:14 22:54:28 16° 68° (ENE) 22:56:43 145.935 - 145.965
UNISAT 6 19 Oct 22:53:58 22:58:28 49° 99° (E) 23:02:49 437.425
TIGRISAT 19 Oct 23:08:54 23:13:31 66° 101° (E) 23:17:58 435.000
AO-85 19 Oct 23:13:05 23:17:42 86° 241° (WSW) 23:22:40 145.980
EO-88 19 Oct 23:33:59 23:36:14 16° 266° (W) 23:38:31 145.990 - 145.960
BEESAT 2 19 Oct 23:54:17 23:57:12 19° 249° (WSW) 00:00:04 435.950
AIST 2D 20 Oct 00:00:03 00:02:56 24° 96° (E) 00:05:48 435.315
POLYITAN 1 20 Oct 00:06:01 00:06:57 11° 90° (E) 00:07:53 437.675
VELOX 1 20 Oct 00:06:37 00:09:13 16° 65° (ENE) 00:11:48 145.980
PRISM 20 Oct 00:11:35 00:15:34 51° 287° (WNW) 00:19:35 437.425
ESTCUBE 1 20 Oct 00:12:10 00:16:39 76° 257° (WSW) 00:21:09 437.505/2401.250
QB50P2 20 Oct 00:24:14 00:27:26 20° 94° (E) 00:30:36 145.880/145.840
LO-87 20 Oct 00:24:29 00:27:36 28° 263° (W) 00:30:47 145.935 - 145.965
NANOSAT C BR1 20 Oct 00:28:21 00:31:16 18° 93° (E) 00:34:10 145.865
RS-15 20 Oct 00:30:06 00:41:11 43° 107° (ESE) 00:52:20 29.354- 29.394
FO-29 20 Oct 00:30:12 00:33:02 13° 302° (WNW) 00:35:58 435.910
UNISAT 6 20 Oct 00:31:54 00:34:42 16° 296° (WNW) 00:37:29 437.425
DUCHIFAT 1 20 Oct 00:39:12 00:42:25 21° 94° (E) 00:45:35 145.980
TIGRISAT 20 Oct 00:47:40 00:49:33 12° 298° (WNW) 00:51:27 435.000
SPROUT 20 Oct 01:00:26 01:04:42 88° 77° (ENE) 01:09:02 437.525
DX 1 20 Oct 01:14:04 01:17:16 21° 67° (ENE) 01:20:28 434.975-435.025
50 SAT 20 Oct 01:16:11 01:18:34 19° 70° (ENE) 01:20:59 437.505
AIST 2D 20 Oct 01:33:38 01:35:55 17° 291° (WNW) 01:38:11 435.315
EO-79 20 Oct 01:34:16 01:38:31 67° 285° (WNW) 01:42:43 145.935-145.965
POLYITAN 1 20 Oct 01:38:52 01:43:05 59° 285° (WNW) 01:47:14 437.675
UKube-1 20 Oct 01:39:00 01:42:26 24° 68° (ENE) 01:45:54 .
VELOX 1 20 Oct 01:41:03 01:45:15 46° 260° (W) 01:49:29 145.980
QB50P2 20 Oct 01:59:28 02:03:15 31° 289° (WNW) 02:06:59 145.880/145.840
NANOSAT C BR1 20 Oct 02:03:11 02:07:03 35° 289° (WNW) 02:10:53 145.865
DUCHIFAT 1 20 Oct 02:14:21 02:18:04 30° 290° (WNW) 02:21:45 145.980
Oscar 19 20 Oct 02:17:45 02:22:21 33° 97° (E) 02:26:55 437.125/150
BUGSAT 1 20 Oct 02:23:44 02:27:59 85° 105° (ESE) 02:32:10 437.445
ITUPSAT 1 20 Oct 02:34:18 02:36:37 14° 62° (ENE) 02:38:57 437.325
NO-84 20 Oct 02:35:10 02:37:18 14° 121° (ESE) 02:39:26 435.350 FM
RS-15 20 Oct 02:41:10 02:53:16 60° 309° (NW) 03:05:25 29.354- 29.394
Gurwin Techsat 1B 20 Oct 02:44:46 02:49:48 42° 99° (E) 02:54:49 435.225
50 SAT 20 Oct 02:48:29 02:50:47 18° 265° (W) 02:53:07 437.505
BEESAT 20 Oct 02:48:57 02:52:19 19° 65° (ENE) 02:55:42 436.000
DX 1 20 Oct 02:49:19 02:53:13 33° 262° (W) 02:57:09 434.975-435.025
UKube-1 20 Oct 03:14:39 03:18:19 27° 263° (W) 03:22:00 .
M-CUBED/EXP-1 PRIME 20 Oct 03:22:02 03:25:35 69° 288° (WNW) 03:29:23 437.505
MOZHAYETS 4 20 Oct 03:44:11 03:48:48 76° 76° (ENE) 03:53:27
CUBESAT XI-V 20 Oct 03:55:29 03:58:57 21° 67° (ENE) 04:02:26 437.345
Oscar 19 20 Oct 03:57:14 04:01:32 28° 293° (WNW) 04:05:49 437.125/150
AO-7 20 Oct 04:08:08 04:15:37 36° 98° (E) 04:23:04 .
ITUPSAT 1 20 Oct 04:09:04 04:13:51 66° 258° (WSW) 04:18:39 437.325
NO-84 20 Oct 04:09:55 04:14:13 79° 315° (NW) 04:18:30 435.350 FM
BEESAT 20 Oct 04:25:11 04:29:44 44° 261° (W) 04:34:19 436.000
Gurwin Techsat 1B 20 Oct 04:25:17 04:29:28 24° 295° (WNW) 04:33:38 435.225
ITAMSAT 1 20 Oct 04:28:26 04:33:13 35° 98° (E) 04:37:58 435.822/435.867
RS-15 20 Oct 04:59:51 05:09:09 24° 338° (NNW) 05:18:20 29.354- 29.394
KKS-1 20 Oct 05:14:40 05:18:50 42° 72° (ENE) 05:23:02 437.445
